Glendive, MT

8:15 PM MST on December 15, 2019 (GMT -0700)
Dawson Community

Weather History for KGDV - October, 2019

Change the Weather History Date:

Thursday, October 10, 2019

  Actual Average Record
Temperature  
Mean Temperature 28 °F 50 °F  
Max Temperature 31 °F 63 °F 90 °F (2015)
Min Temperature 24 °F 37 °F 21 °F (2009)
Degree Days  
Heating Degree Days 37 15  
Month to date heating degree days 219 128  
Year to date heating degree days 6086 4527  
Since 1 July heating degree days 520 235  
Cooling Degree Days 0 0  
Month to date cooling degree days 0 0  
Year to date cooling degree days 465 382  
Since 1 July cooling degree days 465 382  
Moisture  
Dew Point 20 °F    
Average Humidity 77    
Maximum Humidity 91    
Minimum Humidity 63    
Precipitation  
Precipitation 0.03 in 0.04 in 0.55 in (1998)
Month to date precipitation 0.40 0.45  
Year to date precipitation 17.57 12.11  
Sea Level Pressure  
Sea Level Pressure 30.43 in    
Wind  
Wind Speed 14 mph (NW)    
Max Wind Speed 20 mph    
Max Gust Speed 24 mph    
Visibility 10 miles    
Events Snow    
T = Trace of Precipitation, MM = Missing Value Source: NWS Daily Summary

Daily Weather History Graph

Daily Weather History Graph

Search for Another Location

Airport or City:

Astronomy

Oct. 10, 2019 Rise Set
Actual Time 7:10 AM MDT 6:21 PM MDT
Civil Twilight 6:39 AM MDT 6:52 PM MDT
Nautical Twilight 6:04 AM MDT 7:27 PM MDT
Astronomical Twilight 5:28 AM MDT 8:02 PM MDT
Moon 5:40 PM MDT (10/10) 3:37 AM MDT (10/10)
Length of Visible Light 12h 12m
Length of Day
11h 11m
Waxing Gibbous, 91% of the Moon is Illuminated
Oct 10
Waxing Gibbous
Oct 13
Full
Oct 21
Last Quarter
Oct 27
New
Nov 4
First Quarter

Hourly Weather History & Observations

Time (MDT) Temp. Windchill Dew Point Humidity Pressure Visibility Wind Dir Wind Speed Gust Speed Precip Events Conditions
12:56 AM 25.0 °F 13.6 °F 21.9 °F 88% 30.42 in 10.0 mi NNW 12.7 mph - N/A   Overcast
1:56 AM 25.0 °F 13.1 °F 21.9 °F 88% 30.41 in 9.0 mi NNW 13.8 mph - 0.00 in Snow Light Snow
2:56 AM 25.0 °F 12.6 °F 21.9 °F 88% 30.42 in 9.0 mi NNW 15.0 mph - 0.00 in Snow Light Snow
3:56 AM 24.1 °F 11.5 °F 21.0 °F 88% 30.41 in 8.0 mi NNW 15.0 mph - 0.00 in Snow Light Snow
4:56 AM 24.1 °F 12.5 °F 21.0 °F 88% 30.43 in 9.0 mi NW 12.7 mph - 0.00 in Snow Light Snow
5:56 AM 24.1 °F 12.0 °F 21.9 °F 91% 30.44 in 9.0 mi NNW 13.8 mph - 0.00 in Snow Light Snow
6:56 AM 24.1 °F 11.5 °F 21.0 °F 88% 30.45 in 9.0 mi NW 15.0 mph - 0.00 in Snow Light Snow
7:56 AM 25.0 °F 13.1 °F 21.0 °F 85% 30.46 in 9.0 mi NW 13.8 mph - 0.00 in Snow Light Snow
8:56 AM 25.0 °F 13.1 °F 21.0 °F 85% 30.46 in 9.0 mi NW 13.8 mph - 0.00 in Snow Light Snow
9:56 AM 26.1 °F 14.5 °F 21.0 °F 81% 30.47 in 10.0 mi NW 13.8 mph - 0.00 in   Overcast
10:56 AM 28.0 °F 16.5 °F 21.9 °F 78% 30.47 in 10.0 mi NNW 15.0 mph - N/A   Mostly Cloudy
11:56 AM 30.0 °F 19.1 °F 21.9 °F 72% 30.45 in 10.0 mi NNW 15.0 mph - N/A   Mostly Cloudy
12:56 PM 30.9 °F 21.2 °F 21.9 °F 69% 30.44 in 10.0 mi North 12.7 mph - N/A   Overcast
1:56 PM 30.9 °F 20.2 °F 21.9 °F 69% 30.43 in 10.0 mi NNW 15.0 mph - 0.03 in   Overcast
2:56 PM 30.0 °F 17.9 °F 19.9 °F 66% 30.42 in 10.0 mi NNW 18.4 mph 23.0 mph N/A   Overcast
3:56 PM 30.0 °F 17.5 °F 19.0 °F 64% 30.42 in 10.0 mi NW 19.6 mph 24.2 mph N/A   Overcast
4:56 PM 28.9 °F 16.5 °F 18.0 °F 64% 30.42 in 10.0 mi NNW 18.4 mph - N/A   Overcast
5:56 PM 28.0 °F 17.0 °F 17.1 °F 63% 30.44 in 10.0 mi NW 13.8 mph 21.9 mph N/A   Overcast
6:56 PM 27.0 °F 14.7 °F 18.0 °F 69% 30.43 in 10.0 mi NW 16.1 mph 20.7 mph N/A   Overcast
7:56 PM 27.0 °F 16.7 °F 18.0 °F 69% 30.43 in 10.0 mi NW 11.5 mph - N/A   Overcast
8:56 PM 27.0 °F 16.1 °F 18.0 °F 69% 30.43 in 10.0 mi WNW 12.7 mph - N/A   Overcast
9:56 PM 27.0 °F 16.1 °F 18.0 °F 69% 30.42 in 10.0 mi WNW 12.7 mph - N/A   Overcast
10:56 PM 26.1 °F 14.5 °F 18.0 °F 71% 30.41 in 10.0 mi WNW 13.8 mph - N/A   Overcast
11:56 PM 26.1 °F 15.6 °F 19.0 °F 75% 30.38 in 10.0 mi WNW 11.5 mph - N/A   Overcast